Погода в Нане

Таиланд     18°48′27″N   100°46′17″E
темп.,
°C
ветер,
м/с
пор.,
м/с
влажн.,
%
обл.,
%
осадки,
мм/ч
давл.,
гПа
погр.,
м
22 апреля, чт
чт2201:00+26всв01650 0.0 100811
04:00+25св11700 0.0 100711
07:00+25св00695 0.0 100994
10:00+33ю224523 0.0 1010904
13:00+38юв23295 0.0 10062819
16:00+39ююз23226 0.0 10023308
19:00+32ююз123427 0.0 100318
22:00+29ююв11450 0.0 100612
23 апреля, пт
пт2301:00+27ссв11510 0.0 100511
04:00+26сз11585 0.0 100511
07:00+27з01590 0.0 100799
10:00+34ююз24410 0.0 10081338
13:00+39юз22272 0.0 10043319
16:00+40ююз342233 0.0 10003254
19:00+33ююв37406 0.0 1002222
22:00+30ююз11500 0.0 100411
24 апреля, сб
сб2401:00+28ююв01530 0.0 100411
04:00+27юв11571 0.0 100417
07:00+28ю135844 0.0 1007160
10:00+35ю23419 0.0 10081300
13:00+39ю232924 0.0 10042906
16:00+39ссз222761 0.0 10012335
19:00+32ю384425 0.0 1004247
22:00+29сз11535 0.0 100611
25 апреля, вс
вс2501:00+28юз005679 0.0 100611
04:00+27юв116493 0.2 100644
07:00+27вюв116536 0.3 1008124
10:00+35ю234116 0.0 10091247
13:00+39ююв332953 0.0 10052854
16:00+39зсз322785 0.0 10012808
19:00+33ююв3642100 0.1 1003187
22:00+27ю1270100 1.3 100871
26 апреля, пн
пн2601:00+26зюз1173100 1.3 100718
04:00+26юв1174100 0.0 100713
07:00+26ююв1272100 0.3 1008126
10:00+32ю235099 0.0 1010767
13:00+37ююз1237100 0.0 10061774
16:00+38юв1231100 0.0 10022401
19:00+31юв365688 0.9 1003147
22:00+24юз1385100 4.4 1009132